| time (UTC) | temp C | wind direction | speed KPH | gust KPH | rain 1hr cm | rain 24hr cm | rain mn cm | humidity % | barometer mb |
| 20260508035751 | 9 | 60 | 0.0 | 0.0 | 0.00 | 0.00 | 0.00 | 88 | 1016.3 |
| 20260508035249 | 9 | 60 | 0.0 | 0.0 | 0.00 | 0.00 | 0.00 | 88 | 1016.5 |
| 20260508034745 | 8 | 60 | 0.0 | 0.0 | 0.00 | 0.00 | 0.00 | 87 | 1016.5 |
| 20260508034242 | 9 | 60 | 0.0 | 0.0 | 0.00 | 0.00 | 0.00 | 87 | 1016.6 |
| 20260508033739 | 9 | 60 | 0.0 | 0.0 | 0.00 | 0.00 | 0.00 | 86 | 1016.7 |
| 20260508033238 | 9 | 60 | 0.0 | 0.0 | 0.00 | 0.00 | 0.00 | 84 | 1016.6 |
| 20260508032735 | 9 | 60 | 0.0 | 0.0 | 0.00 | 0.00 | 0.00 | 83 | 1016.8 |
| 20260508032232 | 9 | 60 | 0.0 | 0.0 | 0.00 | 0.00 | 0.00 | 82 | 1016.9 |
| 20260508031729 | 10 | 60 | 0.0 | 0.0 | 0.00 | 0.00 | 0.00 | 85 | 1016.7 |
| 20260508031225 | 10 | 60 | 0.0 | 0.0 | 0.00 | 0.00 | 0.00 | 85 | 1016.8 |
| 20260508030721 | 10 | 60 | 0.0 | 0.0 | 0.00 | 0.00 | 0.00 | 85 | 1016.7 |
| 20260508030219 | 10 | 60 | 0.0 | 0.0 | 0.00 | 0.00 | 0.00 | 84 | 1016.6 |
| 20260508025715 | 10 | 60 | 0.0 | 0.0 | 0.00 | 0.00 | 0.00 | 84 | 1016.5 |
| 20260508025213 | 10 | 60 | 0.0 | 0.0 | 0.00 | 0.00 | 0.00 | 83 | 1016.5 |
| 20260508024708 | 10 | 60 | 0.0 | 0.0 | 0.00 | 0.00 | 0.00 | 82 | 1016.6 |
| 20260508024206 | 10 | 60 | 0.0 | 0.0 | 0.00 | 0.00 | 0.00 | 80 | 1016.4 |
| 20260508023701 | 10 | 60 | 0.0 | 0.0 | 0.00 | 0.00 | 0.00 | 78 | 1016.5 |
| 20260508023200 | 10 | 60 | 0.0 | 0.0 | 0.00 | 0.00 | 0.00 | 77 | 1016.3 |
| 20260508022655 | 10 | 60 | 0.0 | 0.0 | 0.00 | 0.00 | 0.00 | 76 | 1016.4 |
| 20260508022152 | 10 | 60 | 0.0 | 0.0 | 0.00 | 0.00 | 0.00 | 76 | 1016.4 |
| 20260508021648 | 10 | 60 | 0.0 | 0.0 | 0.00 | 0.00 | 0.00 | 72 | 1016.0 |
| 20260508021144 | 10 | 60 | 0.0 | 0.0 | 0.00 | 0.00 | 0.00 | 73 | 1016.1 |
| 20260508020642 | 10 | 60 | 0.0 | 0.0 | 0.00 | 0.00 | 0.00 | 70 | 1016.0 |
| 20260508020139 | 11 | 60 | 0.0 | 0.0 | 0.00 | 0.00 | 0.00 | 68 | 1015.8 |
| 20260508015637 | 11 | 60 | 0.0 | 0.0 | 0.00 | 0.00 | 0.00 | 69 | 1015.8 |
| 20260508015133 | 11 | 60 | 0.0 | 0.0 | 0.00 | 0.00 | 0.00 | 68 | 1016.0 |
| 20260508014630 | 11 | 60 | 0.0 | 0.0 | 0.00 | 0.00 | 0.00 | 69 | 1015.7 |
| 20260508014126 | 11 | 60 | 0.0 | 0.0 | 0.00 | 0.00 | 0.00 | 64 | 1016.0 |
| 20260508013622 | 11 | 60 | 0.0 | 0.0 | 0.00 | 0.00 | 0.00 | 63 | 1015.9 |
| 20260508013119 | 11 | 60 | 0.0 | 0.0 | 0.00 | 0.00 | 0.00 | 65 | 1016.0 |
| 20260508012617 | 12 | 60 | 0.0 | 0.0 | 0.00 | 0.00 | 0.00 | 63 | 1015.8 |
| 20260508012114 | 12 | 60 | 0.0 | 0.0 | 0.00 | 0.00 | 0.00 | 63 | 1015.6 |
| 20260508011612 | 12 | 60 | 0.0 | 0.0 | 0.00 | 0.00 | 0.00 | 63 | 1015.6 |
| 20260508011109 | 12 | 60 | 0.0 | 0.0 | 0.00 | 0.00 | 0.00 | 63 | 1015.6 |
| 20260508010606 | 12 | 60 | 0.0 | 0.0 | 0.00 | 0.00 | 0.00 | 63 | 1015.7 |
| 20260508010104 | 12 | 60 | 0.0 | 0.0 | 0.00 | 0.00 | 0.00 | 62 | 1015.6 |
| 20260508005600 | 13 | 60 | 0.0 | 0.0 | 0.00 | 0.00 | 0.00 | 62 | 1015.6 |
| 20260508005056 | 13 | 60 | 0.0 | 0.0 | 0.00 | 0.00 | 0.00 | 60 | 1015.6 |
| 20260508004552 | 13 | 60 | 0.0 | 0.0 | 0.00 | 0.00 | 0.00 | 58 | 1015.5 |
| 20260508004049 | 13 | 60 | 0.0 | 0.0 | 0.00 | 0.00 | 0.00 | 54 | 1015.4 |
| 20260508003546 | 14 | 60 | 0.0 | 0.0 | 0.00 | 0.00 | 0.00 | 53 | 1015.5 |
| 20260508003044 | 14 | 60 | 0.0 | 0.0 | 0.00 | 0.00 | 0.00 | 52 | 1015.3 |
| 20260508002540 | 15 | 60 | 0.0 | 0.0 | 0.00 | 0.00 | 0.00 | 52 | 1015.4 |
| 20260508002037 | 15 | 60 | 0.0 | 0.0 | 0.00 | 0.00 | 0.00 | 51 | 1015.4 |
| 20260508001533 | 15 | 60 | 0.0 | 0.0 | 0.00 | 0.00 | 0.00 | 50 | 1015.3 |
| 20260508001029 | 15 | 60 | 0.0 | 0.0 | 0.00 | 0.00 | 0.00 | 48 | 1015.3 |
| 20260508000525 | 16 | 53 | 0.0 | 0.0 | 0.00 | 0.00 | 0.00 | 46 | 1015.4 |
| 20260508000023 | 16 | 53 | 0.0 | 0.0 | 0.00 | 0.00 | 0.00 | 46 | 1015.2 |
| 20260507235519 | 16 | 59 | 0.0 | 0.0 | 0.00 | 0.00 | 0.00 | 45 | 1014.9 |
| 20260507235017 | 16 | 59 | 0.0 | 0.0 | 0.00 | 0.00 | 0.00 | 44 | 1015.1 |
| 20260507234513 | 16 | 55 | 0.0 | 0.0 | 0.00 | 0.00 | 0.00 | 44 | 1015.1 |
| 20260507234009 | 17 | 55 | 0.0 | 0.0 | 0.00 | 0.00 | 0.00 | 44 | 1015.2 |
| 20260507233506 | 17 | 53 | 0.0 | 0.0 | 0.00 | 0.00 | 0.00 | 43 | 1015.0 |
| 20260507233005 | 17 | 63 | 0.0 | 0.0 | 0.00 | 0.00 | 0.00 | 44 | 1015.1 |
| 20260507232500 | 17 | 64 | 0.0 | 0.0 | 0.00 | 0.00 | 0.00 | 42 | 1015.1 |
| 20260507231958 | 17 | 57 | 0.0 | 0.0 | 0.00 | 0.00 | 0.00 | 41 | 1015.1 |
| 20260507231454 | 17 | 51 | 0.0 | 0.0 | 0.00 | 0.00 | 0.00 | 45 | 1015.2 |
| 20260507230951 | 18 | 53 | 0.0 | 0.0 | 0.00 | 0.00 | 0.00 | 43 | 1015.2 |
| 20260507230448 | 18 | 54 | 0.0 | 0.0 | 0.00 | 0.00 | 0.00 | 40 | 1015.1 |
| 20260507225944 | 18 | 39 | 0.0 | 1.6 | 0.00 | 0.00 | 0.00 | 41 | 1015.2 |
| 20260507225440 | 18 | 57 | 1.6 | 3.2 | 0.00 | 0.00 | 0.00 | 40 | 1015.0 |
| 20260507224936 | 18 | 50 | 0.0 | 0.0 | 0.00 | 0.00 | 0.00 | 42 | 1015.4 |
| 20260507224432 | 18 | 304 | 1.6 | 3.2 | 0.00 | 0.00 | 0.00 | 39 | 1015.3 |
| 20260507223929 | 18 | 14 | 3.2 | 4.8 | 0.00 | 0.00 | 0.00 | 37 | 1015.3 |
| 20260507223425 | 18 | 50 | 1.6 | 1.6 | 0.00 | 0.00 | 0.00 | 40 | 1015.4 |
| 20260507222922 | 18 | 50 | 0.0 | 0.0 | 0.00 | 0.00 | 0.00 | 40 | 1015.4 |
| 20260507222419 | 18 | 61 | 0.0 | 0.0 | 0.00 | 0.00 | 0.00 | 39 | 1015.4 |
| 20260507221916 | 19 | 52 | 0.0 | 0.0 | 0.00 | 0.00 | 0.00 | 39 | 1015.2 |
| 20260507221412 | 19 | 47 | 0.0 | 1.6 | 0.00 | 0.00 | 0.00 | 40 | 1015.4 |
| 20260507220908 | 20 | 44 | 0.0 | 1.6 | 0.00 | 0.00 | 0.00 | 39 | 1015.2 |
| 20260507220407 | 20 | 46 | 0.0 | 0.0 | 0.00 | 0.00 | 0.00 | 37 | 1015.5 |
| 20260507215903 | 20 | 39 | 1.6 | 1.6 | 0.00 | 0.00 | 0.00 | 35 | 1015.3 |
| 20260507215359 | 21 | 41 | 0.0 | 0.0 | 0.00 | 0.00 | 0.00 | 39 | 1015.4 |
| 20260507214857 | 20 | 90 | 1.6 | 3.2 | 0.00 | 0.00 | 0.00 | 38 | 1015.2 |
| 20260507214354 | 21 | 28 | 3.2 | 3.2 | 0.00 | 0.00 | 0.00 | 37 | 1015.2 |
| 20260507213850 | 21 | 35 | 0.0 | 0.0 | 0.00 | 0.00 | 0.00 | 37 | 1015.2 |
| 20260507213346 | 20 | 33 | 1.6 | 1.6 | 0.00 | 0.00 | 0.00 | 36 | 1015.2 |
| 20260507212843 | 20 | 35 | 0.0 | 0.0 | 0.00 | 0.00 | 0.00 | 35 | 1015.1 |
| 20260507212339 | 21 | 132 | 3.2 | 4.8 | 0.00 | 0.00 | 0.00 | 39 | 1015.2 |
| 20260507211836 | 21 | 138 | 1.6 | 3.2 | 0.00 | 0.00 | 0.00 | 39 | 1015.1 |
| 20260507211333 | 21 | 283 | 4.8 | 4.8 | 0.00 | 0.00 | 0.00 | 38 | 1015.2 |
| 20260507210829 | 21 | 265 | 1.6 | 4.8 | 0.00 | 0.00 | 0.00 | 37 | 1015.2 |
| 20260507210327 | 21 | 4 | 3.2 | 3.2 | 0.00 | 0.00 | 0.00 | 36 | 1015.2 |
| 20260507205823 | 21 | 118 | 1.6 | 3.2 | 0.00 | 0.00 | 0.00 | 37 | 1015.3 |
| 20260507205320 | 21 | 359 | 4.8 | 4.8 | 0.00 | 0.00 | 0.00 | 34 | 1015.4 |
| 20260507204816 | 21 | 30 | 3.2 | 3.2 | 0.00 | 0.00 | 0.00 | 36 | 1015.3 |
| 20260507204314 | 20 | 34 | 3.2 | 3.2 | 0.00 | 0.00 | 0.00 | 38 | 1015.2 |
| 20260507203812 | 20 | 50 | 3.2 | 3.2 | 0.00 | 0.00 | 0.00 | 36 | 1015.3 |
| 20260507203309 | 20 | 64 | 0.0 | 1.6 | 0.00 | 0.00 | 0.00 | 38 | 1015.6 |
| 20260507202805 | 20 | 54 | 3.2 | 4.8 | 0.00 | 0.00 | 0.00 | 36 | 1015.5 |
| 20260507202301 | 20 | 24 | 3.2 | 3.2 | 0.00 | 0.00 | 0.00 | 39 | 1015.8 |
| 20260507201756 | 20 | 61 | 0.0 | 1.6 | 0.00 | 0.00 | 0.00 | 37 | 1015.5 |
| 20260507201253 | 21 | 32 | 1.6 | 1.6 | 0.00 | 0.00 | 0.00 | 40 | 1015.8 |
| 20260507200749 | 21 | 38 | 0.0 | 1.6 | 0.00 | 0.00 | 0.00 | 38 | 1015.8 |
| 20260507200245 | 20 | 69 | 1.6 | 1.6 | 0.00 | 0.00 | 0.00 | 35 | 1015.8 |
| 20260507195741 | 20 | 324 | 3.2 | 4.8 | 0.00 | 0.00 | 0.00 | 38 | 1015.8 |
| 20260507195239 | 20 | 137 | 3.2 | 3.2 | 0.00 | 0.00 | 0.00 | 35 | 1015.7 |
| 20260507194736 | 20 | 65 | 1.6 | 3.2 | 0.00 | 0.00 | 0.00 | 37 | 1015.7 |
| 20260507194232 | 21 | 47 | 0.0 | 1.6 | 0.00 | 0.00 | 0.00 | 37 | 1015.9 |
| 20260507193729 | 21 | 32 | 1.6 | 1.6 | 0.00 | 0.00 | 0.00 | 41 | 1016.0 |
| 20260507193226 | 21 | 82 | 1.6 | 1.6 | 0.00 | 0.00 | 0.00 | 36 | 1015.8 |
| 20260507192722 | 21 | 41 | 1.6 | 3.2 | 0.00 | 0.00 | 0.00 | 39 | 1015.9 |
| 20260507192219 | 21 | 1 | 1.6 | 3.2 | 0.00 | 0.00 | 0.00 | 36 | 1016.0 |
| 20260507191714 | 21 | 55 | 0.0 | 1.6 | 0.00 | 0.00 | 0.00 | 39 | 1016.4 |
| 20260507191212 | 21 | 41 | 0.0 | 1.6 | 0.00 | 0.00 | 0.00 | 43 | 1016.3 |
| 20260507190708 | 20 | 35 | 1.6 | 1.6 | 0.00 | 0.00 | 0.00 | 42 | 1016.4 |
| 20260507190207 | 20 | 32 | 1.6 | 1.6 | 0.00 | 0.00 | 0.00 | 40 | 1016.3 |
| 20260507185705 | 20 | 41 | 1.6 | 1.6 | 0.00 | 0.00 | 0.00 | 38 | 1016.3 |
| 20260507185202 | 20 | 42 | 1.6 | 1.6 | 0.00 | 0.00 | 0.00 | 41 | 1016.3 |
| 20260507184659 | 20 | 55 | 1.6 | 1.6 | 0.00 | 0.00 | 0.00 | 40 | 1016.5 |
| 20260507184157 | 20 | 10 | 3.2 | 4.8 | 0.00 | 0.00 | 0.00 | 38 | 1016.5 |
| 20260507183653 | 20 | 235 | 4.8 | 4.8 | 0.00 | 0.00 | 0.00 | 37 | 1016.6 |
| 20260507183150 | 20 | 85 | 1.6 | 1.6 | 0.00 | 0.00 | 0.00 | 40 | 1016.4 |
| 20260507182648 | 20 | 53 | 0.0 | 1.6 | 0.00 | 0.00 | 0.00 | 44 | 1016.3 |
| 20260507182143 | 20 | 45 | 1.6 | 1.6 | 0.00 | 0.00 | 0.00 | 46 | 1016.5 |
| 20260507181640 | 20 | 317 | 3.2 | 3.2 | 0.00 | 0.00 | 0.00 | 41 | 1016.7 |
| 20260507181136 | 20 | 33 | 1.6 | 1.6 | 0.00 | 0.00 | 0.00 | 37 | 1016.9 |
| 20260507180632 | 19 | 41 | 3.2 | 3.2 | 0.00 | 0.00 | 0.00 | 41 | 1016.8 |
| 20260507180130 | 20 | 38 | 3.2 | 3.2 | 0.00 | 0.00 | 0.00 | 42 | 1016.7 |
| 20260507175625 | 19 | 33 | 1.6 | 1.6 | 0.00 | 0.00 | 0.00 | 42 | 1016.8 |
| 20260507175123 | 19 | 29 | 0.0 | 1.6 | 0.00 | 0.00 | 0.00 | 37 | 1016.9 |
| 20260507174620 | 19 | 62 | 1.6 | 3.2 | 0.00 | 0.00 | 0.00 | 37 | 1017.0 |
| 20260507174118 | 19 | 243 | 3.2 | 3.2 | 0.00 | 0.00 | 0.00 | 41 | 1016.9 |
| 20260507173615 | 19 | 52 | 0.0 | 0.0 | 0.00 | 0.00 | 0.00 | 42 | 1016.9 |
| 20260507173112 | 20 | 57 | 0.0 | 1.6 | 0.00 | 0.00 | 0.00 | 40 | 1017.0 |
| 20260507172607 | 20 | 77 | 1.6 | 1.6 | 0.00 | 0.00 | 0.00 | 38 | 1017.2 |
| 20260507172106 | 19 | 45 | 1.6 | 1.6 | 0.00 | 0.00 | 0.00 | 45 | 1017.1 |
| 20260507171600 | 20 | 63 | 0.0 | 1.6 | 0.00 | 0.00 | 0.00 | 38 | 1017.2 |
| 20260507171057 | 19 | 27 | 0.0 | 1.6 | 0.00 | 0.00 | 0.00 | 42 | 1017.2 |
| 20260507170554 | 18 | 17 | 1.6 | 1.6 | 0.00 | 0.00 | 0.00 | 40 | 1017.4 |
| 20260507170051 | 18 | 353 | 3.2 | 4.8 | 0.00 | 0.00 | 0.00 | 43 | 1017.5 |
| 20260507165547 | 19 | 22 | 4.8 | 6.4 | 0.00 | 0.00 | 0.00 | 43 | 1017.5 |
| 20260507165044 | 19 | 31 | 3.2 | 3.2 | 0.00 | 0.00 | 0.00 | 44 | 1017.5 |
| 20260507164540 | 19 | 54 | 0.0 | 0.0 | 0.00 | 0.00 | 0.00 | 39 | 1017.5 |
| 20260507164037 | 19 | 54 | 0.0 | 1.6 | 0.00 | 0.00 | 0.00 | 47 | 1017.5 |
| 20260507163534 | 18 | 11 | 3.2 | 3.2 | 0.00 | 0.00 | 0.00 | 43 | 1017.5 |
| 20260507163032 | 18 | 52 | 0.0 | 0.0 | 0.00 | 0.00 | 0.00 | 45 | 1017.5 |
| 20260507162526 | 18 | 44 | 1.6 | 1.6 | 0.00 | 0.00 | 0.00 | 45 | 1017.6 |
| 20260507162024 | 18 | 201 | 3.2 | 3.2 | 0.00 | 0.00 | 0.00 | 43 | 1017.8 |
| 20260507161520 | 18 | 43 | 3.2 | 4.8 | 0.00 | 0.00 | 0.00 | 42 | 1017.7 |
| 20260507161017 | 18 | 29 | 1.6 | 3.2 | 0.00 | 0.00 | 0.00 | 45 | 1017.7 |
| 20260507160513 | 18 | 45 | 0.0 | 1.6 | 0.00 | 0.00 | 0.00 | 45 | 1017.7 |
| 20260507160010 | 18 | 67 | 1.6 | 1.6 | 0.00 | 0.00 | 0.00 | 42 | 1017.8 |
| 20260507155505 | 18 | 61 | 0.0 | 1.6 | 0.00 | 0.00 | 0.00 | 42 | 1018.0 |
| 20260507155002 | 18 | 48 | 0.0 | 0.0 | 0.00 | 0.00 | 0.00 | 43 | 1017.9 |
| 20260507154459 | 18 | 53 | 0.0 | 0.0 | 0.00 | 0.00 | 0.00 | 45 | 1017.8 |
| 20260507153956 | 18 | 57 | 0.0 | 0.0 | 0.00 | 0.00 | 0.00 | 46 | 1018.0 |
| 20260507153453 | 18 | 58 | 0.0 | 0.0 | 0.00 | 0.00 | 0.00 | 45 | 1017.8 |
| 20260507152949 | 17 | 63 | 0.0 | 0.0 | 0.00 | 0.00 | 0.00 | 43 | 1017.9 |
| 20260507152445 | 17 | 85 | 1.6 | 1.6 | 0.00 | 0.00 | 0.00 | 46 | 1017.9 |
| 20260507151941 | 17 | 42 | 1.6 | 1.6 | 0.00 | 0.00 | 0.00 | 50 | 1017.7 |
| 20260507151438 | 17 | 44 | 1.6 | 1.6 | 0.00 | 0.00 | 0.00 | 53 | 1017.8 |
| 20260507150934 | 17 | 27 | 1.6 | 3.2 | 0.00 | 0.00 | 0.00 | 50 | 1017.7 |
| 20260507150432 | 17 | 73 | 3.2 | 3.2 | 0.00 | 0.00 | 0.00 | 48 | 1017.7 |
| 20260507145928 | 17 | 22 | 1.6 | 3.2 | 0.00 | 0.00 | 0.00 | 50 | 1018.0 |
| 20260507145424 | 16 | 64 | 1.6 | 1.6 | 0.00 | 0.00 | 0.00 | 52 | 1017.9 |
| 20260507144921 | 16 | 34 | 1.6 | 3.2 | 0.00 | 0.00 | 0.00 | 57 | 1017.8 |
| 20260507144418 | 16 | 45 | 1.6 | 1.6 | 0.00 | 0.00 | 0.00 | 54 | 1017.8 |
| 20260507143915 | 16 | 63 | 0.0 | 1.6 | 0.00 | 0.00 | 0.00 | 57 | 1017.9 |
| 20260507143412 | 15 | 41 | 1.6 | 1.6 | 0.00 | 0.00 | 0.00 | 64 | 1017.9 |
| 20260507142908 | 15 | 37 | 1.6 | 3.2 | 0.00 | 0.00 | 0.00 | 61 | 1018.0 |
| 20260507142404 | 15 | 46 | 1.6 | 1.6 | 0.00 | 0.00 | 0.00 | 59 | 1017.8 |
| 20260507141902 | 15 | 53 | 0.0 | 0.0 | 0.00 | 0.00 | 0.00 | 64 | 1017.9 |
| 20260507141358 | 14 | 50 | 0.0 | 1.6 | 0.00 | 0.00 | 0.00 | 63 | 1018.1 |
| 20260507140854 | 13 | 42 | 1.6 | 3.2 | 0.00 | 0.00 | 0.00 | 65 | 1018.0 |
| 20260507140351 | 13 | 67 | 0.0 | 1.6 | 0.00 | 0.00 | 0.00 | 69 | 1018.2 |
| 20260507135849 | 13 | 40 | 0.0 | 1.6 | 0.00 | 0.00 | 0.00 | 72 | 1017.9 |
| 20260507135346 | 12 | 63 | 0.0 | 0.0 | 0.00 | 0.00 | 0.00 | 72 | 1017.7 |
| 20260507134843 | 12 | 50 | 0.0 | 0.0 | 0.00 | 0.00 | 0.00 | 74 | 1017.6 |
| 20260507134339 | 12 | 51 | 0.0 | 1.6 | 0.00 | 0.00 | 0.00 | 75 | 1017.7 |
| 20260507133835 | 12 | 48 | 0.0 | 0.0 | 0.00 | 0.00 | 0.00 | 77 | 1017.7 |
| 20260507133331 | 11 | 61 | 1.6 | 1.6 | 0.00 | 0.00 | 0.00 | 78 | 1017.8 |
| 20260507132830 | 11 | 82 | 1.6 | 1.6 | 0.00 | 0.00 | 0.00 | 82 | 1017.7 |
| 20260507132325 | 11 | 49 | 0.0 | 0.0 | 0.00 | 0.00 | 0.00 | 84 | 1017.8 |
| 20260507131823 | 10 | 42 | 0.0 | 0.0 | 0.00 | 0.00 | 0.00 | 86 | 1017.8 |
| 20260507131319 | 10 | 53 | 0.0 | 0.0 | 0.00 | 0.00 | 0.00 | 91 | 1017.7 |
| 20260507130816 | 10 | 53 | 0.0 | 0.0 | 0.00 | 0.00 | 0.00 | 97 | 1017.8 |
| 20260507130314 | 10 | 50 | 0.0 | 0.0 | 0.00 | 0.00 | 0.00 | 99 | 1017.6 |
| 20260507125813 | 9 | 52 | 0.0 | 0.0 | 0.00 | 0.00 | 0.00 | 99 | 1017.7 |
| 20260507125309 | 9 | 34 | 3.2 | 3.2 | 0.00 | 0.00 | 0.00 | 99 | 1017.6 |
| 20260507124806 | 9 | 51 | 0.0 | 0.0 | 0.00 | 0.00 | 0.00 | 99 | 1017.4 |
| 20260507124303 | 8 | 54 | 0.0 | 0.0 | 0.00 | 0.00 | 0.00 | 99 | 1017.5 |
| 20260507123801 | 8 | 51 | 0.0 | 0.0 | 0.00 | 0.00 | 0.00 | 99 | 1017.5 |
| 20260507123259 | 8 | 48 | 0.0 | 0.0 | 0.00 | 0.00 | 0.00 | 99 | 1017.3 |
| 20260507122754 | 8 | 48 | 0.0 | 0.0 | 0.00 | 0.00 | 0.00 | 99 | 1017.3 |
| 20260507122249 | 8 | 47 | 0.0 | 0.0 | 0.00 | 0.00 | 0.00 | 99 | 1017.3 |
| 20260507121746 | 8 | 45 | 0.0 | 1.6 | 0.00 | 0.00 | 0.00 | 99 | 1017.1 |
| 20260507121242 | 7 | 48 | 0.0 | 0.0 | 0.00 | 0.00 | 0.00 | 99 | 1017.1 |
| 20260507120738 | 7 | 48 | 0.0 | 0.0 | 0.00 | 0.00 | 0.00 | 99 | 1017.2 |
| 20260507120235 | 7 | 48 | 0.0 | 0.0 | 0.00 | 0.00 | 0.00 | 99 | 1017.0 |
| 20260507115731 | 7 | 48 | 0.0 | 0.0 | 0.00 | 0.00 | 0.00 | 99 | 1016.9 |
| 20260507115227 | 7 | 48 | 0.0 | 0.0 | 0.00 | 0.00 | 0.00 | 99 | 1017.0 |
| 20260507114723 | 6 | 48 | 0.0 | 0.0 | 0.00 | 0.00 | 0.00 | 99 | 1017.0 |
| 20260507114221 | 6 | 48 | 0.0 | 0.0 | 0.00 | 0.00 | 0.00 | 99 | 1016.6 |
| 20260507113718 | 6 | 48 | 0.0 | 0.0 | 0.00 | 0.00 | 0.00 | 99 | 1016.7 |
| 20260507113215 | 6 | 48 | 0.0 | 0.0 | 0.00 | 0.00 | 0.00 | 99 | 1016.7 |
| 20260507112712 | 6 | 48 | 0.0 | 0.0 | 0.00 | 0.00 | 0.00 | 99 | 1016.7 |
| 20260507112209 | 6 | 48 | 0.0 | 0.0 | 0.00 | 0.00 | 0.00 | 99 | 1016.7 |
| 20260507111706 | 6 | 48 | 0.0 | 0.0 | 0.00 | 0.00 | 0.00 | 99 | 1016.6 |
| 20260507111203 | 6 | 48 | 0.0 | 0.0 | 0.00 | 0.00 | 0.00 | 99 | 1016.4 |
| 20260507110659 | 6 | 48 | 0.0 | 0.0 | 0.00 | 0.00 | 0.00 | 99 | 1016.7 |
| 20260507110156 | 6 | 48 | 0.0 | 0.0 | 0.00 | 0.00 | 0.00 | 99 | 1016.7 |
| 20260507105653 | 6 | 48 | 0.0 | 0.0 | 0.00 | 0.00 | 0.00 | 99 | 1016.4 |
| 20260507105149 | 6 | 48 | 0.0 | 0.0 | 0.00 | 0.00 | 0.00 | 99 | 1016.5 |
| 20260507104646 | 7 | 48 | 0.0 | 0.0 | 0.00 | 0.00 | 0.00 | 99 | 1016.6 |
| 20260507104142 | 7 | 48 | 0.0 | 0.0 | 0.00 | 0.00 | 0.00 | 99 | 1016.6 |
| 20260507103638 | 7 | 48 | 0.0 | 0.0 | 0.00 | 0.00 | 0.00 | 99 | 1016.6 |
| 20260507103136 | 7 | 48 | 0.0 | 0.0 | 0.00 | 0.00 | 0.00 | 99 | 1016.5 |
| 20260507102632 | 7 | 48 | 0.0 | 0.0 | 0.00 | 0.00 | 0.00 | 99 | 1016.6 |
| 20260507102128 | 7 | 48 | 0.0 | 0.0 | 0.00 | 0.00 | 0.00 | 99 | 1016.6 |
| 20260507101624 | 7 | 48 | 0.0 | 0.0 | 0.00 | 0.00 | 0.00 | 99 | 1016.4 |
| 20260507101120 | 7 | 48 | 0.0 | 0.0 | 0.00 | 0.00 | 0.00 | 99 | 1016.5 |
| 20260507100618 | 7 | 48 | 0.0 | 0.0 | 0.00 | 0.00 | 0.00 | 99 | 1016.4 |
| 20260507100116 | 7 | 48 | 0.0 | 0.0 | 0.00 | 0.00 | 0.00 | 99 | 1016.5 |
| 20260507095613 | 7 | 48 | 0.0 | 0.0 | 0.00 | 0.00 | 0.00 | 99 | 1016.4 |
| 20260507095110 | 7 | 48 | 0.0 | 0.0 | 0.00 | 0.00 | 0.00 | 99 | 1016.3 |
| 20260507094606 | 7 | 48 | 0.0 | 0.0 | 0.00 | 0.00 | 0.00 | 99 | 1016.3 |
| 20260507094103 | 7 | 48 | 0.0 | 0.0 | 0.00 | 0.00 | 0.00 | 99 | 1016.5 |
| 20260507093600 | 7 | 48 | 0.0 | 0.0 | 0.00 | 0.00 | 0.00 | 99 | 1016.6 |
| 20260507093059 | 7 | 48 | 0.0 | 0.0 | 0.00 | 0.00 | 0.00 | 99 | 1016.4 |
| 20260507092555 | 7 | 48 | 0.0 | 0.0 | 0.00 | 0.00 | 0.00 | 99 | 1016.3 |
| 20260507092052 | 7 | 48 | 0.0 | 0.0 | 0.00 | 0.00 | 0.00 | 99 | 1016.1 |
| 20260507091549 | 7 | 48 | 0.0 | 0.0 | 0.00 | 0.00 | 0.00 | 99 | 1016.0 |
| 20260507091045 | 7 | 48 | 0.0 | 0.0 | 0.00 | 0.00 | 0.00 | 99 | 1016.3 |
| 20260507090541 | 7 | 48 | 0.0 | 0.0 | 0.00 | 0.00 | 0.00 | 99 | 1015.9 |
| 20260507090038 | 7 | 48 | 0.0 | 0.0 | 0.00 | 0.00 | 0.00 | 99 | 1015.6 |
| 20260507085535 | 7 | 48 | 0.0 | 0.0 | 0.00 | 0.00 | 0.00 | 99 | 1015.7 |
| 20260507085031 | 7 | 48 | 0.0 | 0.0 | 0.00 | 0.00 | 0.00 | 99 | 1015.6 |
| 20260507084528 | 7 | 48 | 0.0 | 0.0 | 0.00 | 0.00 | 0.00 | 99 | 1015.7 |
| 20260507084025 | 8 | 48 | 0.0 | 0.0 | 0.00 | 0.00 | 0.00 | 99 | 1015.7 |
| 20260507083521 | 8 | 48 | 0.0 | 0.0 | 0.00 | 0.00 | 0.00 | 99 | 1015.7 |
| 20260507083019 | 8 | 48 | 0.0 | 0.0 | 0.00 | 0.00 | 0.00 | 99 | 1015.8 |
| 20260507082514 | 8 | 48 | 0.0 | 0.0 | 0.00 | 0.00 | 0.00 | 99 | 1015.7 |
| 20260507082011 | 8 | 48 | 0.0 | 0.0 | 0.00 | 0.00 | 0.00 | 99 | 1015.8 |
| 20260507081507 | 8 | 48 | 0.0 | 0.0 | 0.00 | 0.00 | 0.00 | 99 | 1015.8 |
| 20260507081004 | 8 | 48 | 0.0 | 0.0 | 0.00 | 0.00 | 0.00 | 99 | 1015.6 |
| 20260507080500 | 8 | 48 | 0.0 | 0.0 | 0.00 | 0.00 | 0.00 | 99 | 1015.6 |
| 20260507075955 | 8 | 48 | 0.0 | 0.0 | 0.00 | 0.00 | 0.00 | 99 | 1015.8 |
| 20260507075452 | 8 | 48 | 0.0 | 0.0 | 0.00 | 0.00 | 0.00 | 99 | 1015.7 |
| 20260507074948 | 8 | 48 | 0.0 | 0.0 | 0.00 | 0.00 | 0.00 | 99 | 1016.0 |
| 20260507074445 | 8 | 48 | 0.0 | 0.0 | 0.00 | 0.00 | 0.00 | 99 | 1015.9 |
| 20260507073944 | 8 | 48 | 0.0 | 0.0 | 0.00 | 0.00 | 0.00 | 99 | 1016.0 |
| 20260507073439 | 9 | 48 | 0.0 | 0.0 | 0.00 | 0.00 | 0.00 | 99 | 1015.8 |
| 20260507072936 | 9 | 48 | 0.0 | 0.0 | 0.00 | 0.00 | 0.00 | 99 | 1015.7 |
| 20260507072434 | 9 | 48 | 0.0 | 0.0 | 0.00 | 0.00 | 0.00 | 99 | 1015.7 |
| 20260507071931 | 9 | 48 | 0.0 | 0.0 | 0.00 | 0.00 | 0.00 | 99 | 1015.6 |
| 20260507071428 | 9 | 48 | 0.0 | 0.0 | 0.00 | 0.00 | 0.00 | 99 | 1015.8 |
| 20260507070924 | 9 | 48 | 0.0 | 0.0 | 0.00 | 0.00 | 0.00 | 99 | 1015.9 |
| 20260507070422 | 9 | 48 | 0.0 | 0.0 | 0.00 | 0.00 | 0.00 | 99 | 1015.8 |
| 20260507065919 | 10 | 48 | 0.0 | 0.0 | 0.00 | 0.00 | 0.00 | 99 | 1015.7 |
| 20260507065416 | 10 | 48 | 0.0 | 0.0 | 0.00 | 0.00 | 0.00 | 99 | 1015.6 |
| 20260507064913 | 10 | 48 | 0.0 | 0.0 | 0.00 | 0.00 | 0.00 | 99 | 1015.8 |
| 20260507064411 | 10 | 48 | 0.0 | 0.0 | 0.00 | 0.00 | 0.00 | 99 | 1015.7 |
| 20260507063908 | 10 | 48 | 0.0 | 0.0 | 0.00 | 0.00 | 0.00 | 99 | 1015.6 |
| 20260507063406 | 10 | 48 | 0.0 | 0.0 | 0.00 | 0.00 | 0.00 | 99 | 1015.8 |
| 20260507062902 | 10 | 48 | 0.0 | 0.0 | 0.00 | 0.00 | 0.00 | 99 | 1015.8 |
| 20260507062359 | 10 | 48 | 0.0 | 0.0 | 0.00 | 0.00 | 0.00 | 99 | 1015.8 |
| 20260507061857 | 10 | 48 | 0.0 | 0.0 | 0.00 | 0.00 | 0.00 | 99 | 1015.9 |
| 20260507061355 | 10 | 48 | 0.0 | 0.0 | 0.00 | 0.00 | 0.00 | 99 | 1015.8 |
| 20260507060853 | 10 | 48 | 0.0 | 0.0 | 0.00 | 0.00 | 0.00 | 99 | 1015.8 |
| 20260507060349 | 10 | 48 | 0.0 | 0.0 | 0.00 | 0.00 | 0.00 | 99 | 1015.9 |
| 20260507055846 | 10 | 48 | 0.0 | 0.0 | 0.00 | 0.00 | 0.00 | 99 | 1016.1 |
| 20260507055341 | 10 | 48 | 0.0 | 0.0 | 0.00 | 0.00 | 0.00 | 99 | 1016.0 |
| 20260507054838 | 10 | 48 | 0.0 | 0.0 | 0.00 | 0.00 | 0.00 | 99 | 1015.9 |
| 20260507054334 | 10 | 48 | 0.0 | 0.0 | 0.00 | 0.00 | 0.00 | 99 | 1015.9 |
| 20260507053831 | 10 | 48 | 0.0 | 0.0 | 0.00 | 0.00 | 0.00 | 99 | 1016.1 |
| 20260507053329 | 10 | 48 | 0.0 | 0.0 | 0.00 | 0.00 | 0.00 | 99 | 1015.9 |
| 20260507052828 | 10 | 48 | 0.0 | 0.0 | 0.00 | 0.00 | 0.00 | 99 | 1016.1 |
| 20260507052324 | 10 | 48 | 0.0 | 0.0 | 0.00 | 0.00 | 0.00 | 99 | 1015.9 |
| 20260507051822 | 10 | 48 | 0.0 | 0.0 | 0.00 | 0.00 | 0.00 | 99 | 1015.8 |
| 20260507051319 | 10 | 48 | 0.0 | 0.0 | 0.00 | 0.00 | 0.00 | 99 | 1015.9 |
| 20260507050816 | 10 | 48 | 0.0 | 0.0 | 0.00 | 0.00 | 0.00 | 99 | 1015.9 |
| 20260507050312 | 10 | 48 | 0.0 | 0.0 | 0.00 | 0.00 | 0.00 | 99 | 1015.8 |
| 20260507045809 | 10 | 48 | 0.0 | 0.0 | 0.00 | 0.56 | 0.56 | 99 | 1015.8 |
| 20260507045307 | 10 | 48 | 0.0 | 0.0 | 0.00 | 0.56 | 0.56 | 99 | 1015.9 |
| 20260507044803 | 10 | 48 | 0.0 | 0.0 | 0.00 | 0.56 | 0.56 | 99 | 1015.7 |
| 20260507044259 | 10 | 48 | 0.0 | 0.0 | 0.00 | 0.56 | 0.56 | 99 | 1015.8 |
| 20260507043755 | 10 | 48 | 0.0 | 0.0 | 0.00 | 0.56 | 0.56 | 99 | 1015.9 |
| 20260507043252 | 10 | 48 | 0.0 | 0.0 | 0.00 | 0.56 | 0.56 | 99 | 1015.9 |
| 20260507042748 | 10 | 48 | 0.0 | 0.0 | 0.00 | 0.56 | 0.56 | 99 | 1015.9 |
| 20260507042243 | 10 | 48 | 0.0 | 0.0 | 0.00 | 0.56 | 0.56 | 99 | 1016.0 |
| 20260507041742 | 10 | 48 | 0.0 | 0.0 | 0.00 | 0.56 | 0.56 | 99 | 1016.3 |
| 20260507041238 | 10 | 48 | 0.0 | 0.0 | 0.00 | 0.56 | 0.56 | 99 | 1016.1 |
| 20260507040735 | 10 | 48 | 0.0 | 0.0 | 0.00 | 0.56 | 0.56 | 99 | 1016.1 |
| 20260507040231 | 10 | 48 | 0.0 | 0.0 | 0.00 | 0.56 | 0.56 | 99 | 1016.0 |